Temp
40 38 37 35 35 34 33 32 31 32 32 32 32 33 33 33 34 35 34 34 33 33 34 33 33 33 32 33 33 35 34 33 30 33 34 33 33 33 33 34 34 37 39
39 37 35 34 33 32 31 30 30 29 30 31 32 32 32 32 34 34 33 32 32 31 32 32 32 33 31 32 32 34 34 35 32 31 32 32 32 32 32 32 33 34 35
37 35 33 32 31 28 26 27 27 25 26 29 30 29 29 30 33 33 33 32 32 32 31 31 31 31 30 30 33 33 34 36 34 32 32 33 32 32 32 32 32 32 35
35 33 31 30 27 24 23 23 22 22 23 23 25 25 26 29 33 32 32 31 31 31 31 31 32 31 29 31 32 32 33 33 33 32 32 32 32 32 33 32 31 32 32
32 29 26 26 23 21 20 20 21 22 22 21 22 23 25 29 32 31 30 30 30 29 30 31 32 32 32 34 32 32 32 31 31 31 31 31 30 31 31 32 31 31 31
28 24 23 21 20 20 19 20 20 19 20 21 21 22 23 28 32 31 29 29 29 28 27 29 31 32 33 34 35 35 34 31 29 29 29 28 29 30 32 32 32 32 29
24 22 20 19 18 18 19 19 19 19 21 20 20 22 23 25 31 31 28 28 27 26 27 28 29 31 32 32 33 35 34 35 34 31 28 28 28 30 31 32 31 31 29
22 20 20 18 17 17 18 18 20 21 21 22 20 21 23 24 30 31 28 27 26 25 26 27 27 30 31 31 31 31 32 31 32 32 31 30 30 31 32 32 31 31 32
21 20 19 18 17 17 17 18 21 22 22 22 22 21 21 22 29 30 27 26 25 24 25 26 27 28 31 32 29 28 29 29 33 35 35 35 34 34 33 32 31 31 29
22 21 19 19 18 17 19 20 21 23 22 24 23 22 19 21 27 29 28 26 23 24 25 26 28 29 30 31 27 26 24 26 29 31 32 33 33 32 32 31 31 31 30
23 20 19 19 18 19 19 21 21 22 21 21 21 22 21 21 23 28 28 25 22 23 23 24 25 29 29 30 29 26 26 29 29 30 30 30 31 31 30 30 30 30 31
20 19 18 18 19 19 19 20 21 21 20 20 21 23 24 23 25 25 26 26 24 22 21 24 25 28 28 28 27 29 28 28 28 27 27 28 28 29 30 30 30 31 31
19 18 17 18 19 20 20 20 21 22 22 22 22 22 22 24 25 25 25 24 24 21 21 23 25 27 27 26 28 27 24 23 24 24 25 26 28 30 31 30 30 30 31
18 17 18 18 19 20 22 22 21 21 22 21 21 21 22 23 24 24 24 24 23 22 21 21 24 25 26 25 23 24 22 22 22 22 23 26 29 30 30 31 30 31 30
18 18 18 20 19 19 21 21 22 24 24 22 23 23 22 20 22 24 22 21 20 19 17 20 19 19 18 18 20 20 21 20 18 20 21 23 25 28 29 30 30 31 29
18 18 20 20 20 20 19 20 26 25 27 27 26 24 23 25 24 24 23 22 21 21 16 16 15 15 14 15 15 17 18 18 18 19 20 21 22 26 27 29 30 30 28
20 20 20 20 20 19 19 18 17 23 26 26 26 26 26 24 23 22 21 21 21 19 13 13 12 12 12 13 14 15 15 17 18 18 18 19 21 24 26 26 28 29 28
22 22 21 21 21 20 20 19 20 19 18 20 26 25 25 24 22 21 21 20 13 13 11 10 9 10 10 11 11 13 14 15 16 17 17 18 19 22 24 25 26 27 28
22 22 22 22 22 21 21 20 21 21 20 19 18 19 21 23 21 20 20 14 11 10 10 9 9 9 9 10 10 11 14 13 14 15 16 16 18 20 22 25 26 26 27
23 22 23 22 20 20 20 20 21 20 19 16 16 17 14 14 13 12 12 13 11 10 10 8 8 7 8 8 10 10 11 12 12 12 14 15 17 19 20 23 25 25 26
22 21 22 21 19 20 20 20 20 19 17 15 16 18 18 15 14 12 11 11 11 9 8 9 8 7 7 7 8 10 10 11 10 10 12 14 16 17 20 23 25 26 27
22 20 21 20 20 19 19 20 18 17 16 15 14 15 22 14 14 12 11 9 9 8 6 7 7 5 3 4 4 7 8 8 8 8 10 12 15 17 20 22 24 26 28
20 19 20 20 19 19 18 18 17 16 15 14 12 14 15 13 12 11 10 9 6 5 3 4 5 2 2 2 3 3 3 4 8 11 9 10 14 16 19 21 23 24 26
20 19 19 19 18 17 18 16 16 16 14 13 13 15 14 12 11 11 9 8 6 5 1 -2 -0 -1 -2 -0 3 4 2 3 8 9 9 10 13 16 18 20 22 24 26
20 19 18 18 17 17 17 16 15 14 14 13 13 13 13 11 10 9 8 5 2 3 0 -2 -2 -2 -4 -5 -4 -3 -1 2 5 4 8 9 12 15 17 19 21 23 25
20 19 19 18 17 17 16 15 14 14 13 13 13 12 11 10 9 8 6 3 0 -1 0 -1 -2 -4 -4 -3 -3 1 3 11 6 5 8 10 10 13 15 18 20 22 23
MSLP
1021.26 1022.42 1023.02 1023.73 1024.38 1025.09 1025.51 1026.06 1026.20 1026.34 1026.45 1026.28 1026.02 1025.53 1025.15 1024.85 1024.64 1024.12 1023.72 1023.25 1022.86 1022.34 1021.86 1021.45 1020.78 1020.08 1019.00 1017.75 1016.87 1015.81 1015.04 1014.15 1013.20 1012.36 1011.89 1011.61 1010.95 1010.36 1009.77 1009.17 1008.91 1008.70 1008.81
1020.98 1022.29 1023.42 1023.97 1024.49 1025.06 1025.73 1026.19 1026.38 1026.46 1026.52 1026.54 1026.13 1025.70 1025.48 1025.28 1024.79 1024.36 1023.85 1023.52 1023.21 1022.77 1022.29 1021.79 1021.23 1020.51 1019.58 1018.55 1017.12 1016.32 1015.68 1015.12 1014.40 1013.55 1013.07 1012.37 1012.03 1011.85 1011.60 1011.34 1011.17 1010.87 1010.88
1020.80 1021.93 1023.09 1023.91 1024.49 1025.22 1026.08 1026.58 1026.76 1026.96 1027.01 1026.74 1026.41 1026.15 1026.13 1026.00 1025.01 1024.65 1024.19 1023.76 1023.47 1023.28 1022.87 1022.27 1021.75 1021.01 1020.06 1019.13 1018.08 1016.96 1015.93 1015.29 1015.05 1014.46 1013.97 1013.44 1013.04 1012.81 1012.51 1012.89 1012.63 1012.60 1012.65
1020.77 1021.60 1022.85 1023.90 1024.76 1025.51 1026.36 1026.87 1027.21 1027.21 1027.35 1027.43 1027.23 1026.96 1026.60 1026.17 1025.33 1025.06 1024.60 1024.10 1023.84 1023.76 1023.35 1022.88 1022.34 1021.69 1020.78 1019.60 1018.73 1017.99 1017.06 1016.08 1015.55 1015.22 1014.81 1014.52 1014.14 1013.84 1013.68 1013.51 1013.37 1013.58 1013.53
1020.83 1021.76 1023.03 1024.14 1025.05 1025.72 1026.43 1027.08 1027.38 1027.43 1027.49 1027.74 1027.49 1027.15 1026.73 1026.20 1025.55 1025.19 1025.01 1024.42 1024.09 1024.06 1023.82 1023.33 1022.72 1022.10 1021.37 1020.29 1019.42 1018.68 1017.82 1017.05 1016.62 1016.15 1015.76 1015.39 1015.12 1014.64 1014.46 1014.50 1014.33 1014.35 1014.37
1020.67 1022.13 1023.25 1024.23 1025.41 1025.80 1026.35 1027.02 1027.34 1027.62 1027.61 1027.94 1027.82 1027.43 1027.02 1026.54 1025.69 1025.48 1025.45 1024.73 1024.38 1024.41 1024.05 1023.65 1023.03 1022.11 1021.51 1020.76 1020.02 1019.30 1018.77 1017.92 1017.25 1017.01 1016.73 1016.40 1016.08 1015.78 1015.37 1015.16 1015.08 1015.04 1015.36
1020.69 1022.11 1023.19 1024.10 1025.17 1025.77 1026.29 1026.90 1027.26 1027.48 1027.73 1027.95 1028.00 1027.48 1027.24 1027.23 1026.11 1025.65 1025.68 1025.05 1024.80 1024.97 1024.56 1024.07 1023.58 1022.67 1021.84 1021.17 1020.50 1019.84 1019.31 1018.79 1018.34 1017.89 1017.48 1017.31 1016.87 1016.54 1015.96 1015.48 1015.48 1015.48 1015.94
1020.44 1021.76 1022.89 1023.91 1024.97 1025.77 1026.20 1026.83 1027.10 1027.43 1027.57 1027.90 1028.00 1027.63 1027.38 1027.49 1026.41 1025.89 1025.80 1025.33 1025.09 1025.32 1025.17 1024.55 1024.02 1023.15 1022.41 1021.64 1020.95 1020.35 1019.82 1019.49 1018.94 1018.49 1018.15 1017.86 1017.53 1017.07 1016.51 1016.18 1016.22 1016.39 1016.67
1019.86 1021.02 1022.23 1023.34 1024.60 1025.35 1025.77 1026.45 1026.91 1027.35 1027.53 1027.77 1028.00 1027.67 1027.53 1027.57 1026.67 1026.12 1026.08 1025.48 1025.36 1025.43 1025.45 1025.03 1024.41 1023.66 1022.86 1022.08 1021.49 1020.89 1020.34 1020.02 1019.44 1018.93 1018.49 1018.17 1017.87 1017.47 1017.01 1016.66 1016.54 1016.36 1016.66
1019.10 1020.35 1021.55 1022.84 1023.88 1024.85 1025.40 1026.10 1026.43 1026.88 1027.38 1027.58 1027.76 1027.65 1027.68 1027.66 1026.97 1026.41 1026.28 1025.85 1025.63 1025.66 1025.49 1025.22 1024.80 1024.10 1023.36 1022.55 1022.12 1021.63 1020.96 1020.46 1019.91 1019.17 1018.82 1018.45 1018.17 1018.06 1017.69 1017.43 1017.25 1017.08 1017.15
1018.77 1020.25 1021.51 1022.37 1023.34 1024.25 1024.88 1025.70 1026.30 1026.70 1027.27 1027.68 1027.72 1027.81 1027.77 1027.84 1027.52 1026.81 1026.57 1026.30 1026.26 1026.06 1025.90 1025.53 1025.17 1024.41 1023.96 1023.20 1022.71 1022.25 1021.73 1020.96 1020.21 1019.78 1019.34 1018.97 1018.54 1018.22 1018.23 1017.97 1017.86 1017.68 1017.43
1018.90 1020.00 1021.13 1022.29 1023.09 1023.87 1024.60 1025.49 1026.09 1026.57 1026.99 1027.56 1027.73 1027.57 1027.56 1027.74 1027.53 1027.41 1027.07 1026.72 1026.65 1026.53 1026.40 1026.08 1025.67 1024.91 1024.31 1023.94 1023.33 1022.73 1022.18 1021.54 1020.95 1020.28 1019.86 1019.50 1019.08 1018.87 1018.61 1018.37 1018.47 1018.27 1018.17
1019.09 1019.88 1020.66 1021.88 1022.81 1023.65 1024.23 1025.04 1025.64 1026.17 1026.55 1027.00 1027.33 1027.46 1027.45 1027.56 1027.44 1027.49 1027.36 1027.06 1026.96 1027.02 1027.03 1026.62 1026.07 1025.46 1024.85 1024.49 1023.89 1023.41 1023.02 1022.50 1021.92 1021.36 1020.77 1020.16 1019.59 1019.20 1018.83 1018.70 1018.63 1018.61 1018.54
1019.14 1020.06 1020.84 1021.48 1022.41 1023.35 1024.00 1024.74 1025.06 1025.79 1026.14 1026.70 1027.08 1027.31 1027.38 1027.49 1027.64 1027.47 1027.39 1027.13 1027.12 1027.16 1027.30 1026.82 1026.22 1025.85 1025.45 1025.08 1024.65 1024.27 1023.96 1023.55 1023.07 1022.48 1021.97 1021.18 1020.14 1019.51 1019.25 1019.15 1018.94 1018.78 1018.66
1018.89 1019.90 1020.57 1021.42 1022.05 1022.96 1023.83 1024.35 1024.80 1025.54 1025.70 1026.21 1026.78 1027.12 1027.20 1027.56 1027.97 1027.72 1027.58 1027.54 1027.56 1027.63 1027.74 1027.20 1026.83 1026.51 1026.24 1025.92 1025.54 1025.21 1024.78 1024.28 1023.82 1023.25 1022.56 1021.75 1020.92 1020.09 1019.79 1019.44 1019.26 1019.22 1019.16
1018.09 1019.20 1020.01 1021.02 1021.79 1022.61 1023.60 1024.54 1025.03 1025.80 1026.02 1026.36 1026.92 1027.37 1027.66 1027.78 1028.19 1028.04 1027.93 1028.09 1028.01 1027.57 1027.79 1027.97 1028.06 1027.85 1027.57 1027.29 1026.83 1026.22 1025.71 1025.25 1024.76 1024.21 1023.55 1022.80 1021.95 1021.12 1020.63 1020.31 1020.26 1020.23 1020.23
1016.78 1017.98 1019.47 1020.18 1021.22 1021.78 1023.27 1024.08 1024.70 1025.89 1026.31 1026.72 1027.10 1027.45 1027.67 1027.99 1028.40 1028.50 1028.41 1028.52 1028.44 1028.16 1028.55 1028.92 1029.12 1028.94 1028.71 1028.43 1028.13 1027.54 1026.93 1026.42 1025.77 1025.07 1024.50 1023.86 1023.27 1022.37 1021.72 1021.42 1021.19 1021.08 1021.16
1016.64 1017.43 1018.44 1019.59 1020.31 1021.24 1022.62 1023.58 1024.14 1024.80 1025.78 1026.51 1026.89 1027.46 1027.99 1028.28 1028.75 1028.78 1028.68 1028.81 1029.20 1029.34 1029.59 1029.72 1029.98 1029.80 1029.50 1029.23 1028.96 1028.48 1027.86 1027.19 1026.55 1025.95 1025.37 1024.73 1024.11 1023.28 1022.70 1022.49 1022.29 1022.01 1021.85
1016.37 1016.92 1018.08 1018.94 1020.11 1020.73 1022.05 1023.31 1023.87 1024.56 1025.52 1026.30 1027.05 1027.97 1028.37 1028.80 1029.27 1029.19 1029.06 1029.32 1029.58 1030.00 1030.28 1030.38 1030.55 1030.54 1030.19 1029.87 1029.56 1029.22 1028.67 1028.18 1027.64 1026.96 1026.36 1025.80 1025.05 1024.28 1023.71 1023.27 1022.93 1022.69 1022.45
1015.97 1016.73 1017.67 1018.49 1019.34 1020.43 1021.57 1022.45 1023.21 1024.00 1024.97 1026.00 1026.80 1027.46 1028.68 1029.58 1029.76 1029.78 1029.82 1029.95 1030.05 1030.45 1030.71 1030.97 1031.22 1031.18 1030.84 1030.64 1030.17 1029.81 1029.37 1028.79 1028.39 1027.87 1027.26 1026.62 1025.93 1025.24 1024.69 1024.09 1023.61 1023.21 1023.10
1015.11 1016.03 1017.23 1018.10 1018.89 1019.54 1020.81 1021.64 1022.39 1023.42 1024.52 1025.43 1026.19 1026.97 1027.97 1028.72 1029.51 1029.91 1030.20 1030.48 1030.52 1030.90 1031.06 1031.17 1031.68 1031.77 1031.31 1031.07 1030.87 1030.40 1030.09 1029.71 1029.22 1028.85 1028.23 1027.50 1026.74 1026.14 1025.62 1024.91 1024.36 1024.05 1023.86
1014.35 1015.26 1016.51 1017.24 1018.22 1019.14 1020.21 1021.13 1021.91 1022.85 1024.01 1024.95 1025.87 1026.76 1027.43 1028.48 1029.17 1029.82 1030.25 1030.85 1031.05 1031.29 1031.55 1031.43 1031.81 1032.15 1032.11 1031.77 1031.53 1031.09 1030.74 1030.45 1029.95 1029.42 1029.04 1028.36 1027.68 1027.04 1026.28 1025.56 1025.01 1024.67 1024.42
1013.87 1014.62 1015.86 1016.75 1017.65 1018.75 1019.78 1020.67 1021.54 1022.40 1023.49 1024.42 1025.38 1026.35 1027.09 1028.14 1028.95 1029.59 1030.14 1030.76 1031.30 1031.57 1031.88 1031.74 1032.01 1032.47 1032.46 1032.17 1031.99 1031.79 1031.54 1031.22 1030.75 1030.16 1029.76 1029.18 1028.43 1027.74 1027.00 1026.32 1025.73 1025.22 1024.81
1012.96 1013.89 1014.79 1015.76 1016.91 1018.02 1018.96 1020.01 1021.06 1022.01 1022.88 1023.84 1024.72 1025.57 1026.56 1027.52 1028.62 1029.33 1029.92 1030.59 1031.12 1031.52 1031.92 1032.28 1032.28 1032.63 1032.88 1032.65 1032.29 1032.06 1031.86 1031.51 1031.00 1030.59 1030.38 1029.93 1029.10 1028.27 1027.64 1026.99 1026.49 1026.13 1025.72
1012.01 1012.96 1013.83 1014.74 1015.51 1016.77 1018.14 1019.25 1020.36 1021.39 1022.32 1023.19 1024.05 1025.13 1026.15 1027.16 1028.16 1029.01 1029.70 1030.46 1031.09 1031.42 1031.80 1032.19 1032.38 1032.59 1032.90 1032.88 1032.69 1032.34 1032.02 1031.68 1031.06 1030.83 1030.42 1030.10 1029.67 1028.99 1028.37 1027.84 1027.27 1026.78 1026.36
1011.16 1011.89 1012.74 1013.87 1014.61 1015.57 1016.74 1018.05 1019.25 1020.54 1021.39 1022.53 1023.49 1024.65 1025.64 1026.70 1027.73 1028.47 1029.41 1030.22 1031.00 1031.32 1031.55 1031.93 1032.35 1032.46 1032.76 1032.80 1032.75 1032.48 1031.96 1031.40 1031.29 1030.96 1030.49 1030.10 1029.91 1029.55 1029.09 1028.55 1027.92 1027.53 1027.23
Wind_Speed
12 9 10 9 8 6 5 4 3 3 4 5 5 7 8 10 11 10 11 11 12 11 11 12 13 14 11 12 11 10 10 8 8 4 5 8 10 12 13 13 14 13 14
12 11 10 10 9 8 6 4 3 4 3 4 4 6 8 10 10 11 11 11 11 12 12 12 12 11 14 14 11 13 11 10 7 8 6 7 8 9 10 12 10 11 11
13 12 12 11 9 8 6 5 4 4 3 4 4 6 8 9 10 11 11 10 10 11 11 11 12 13 14 13 12 12 11 9 8 6 6 3 4 3 6 7 7 9 8
13 13 12 10 10 8 7 6 4 3 3 4 5 5 6 7 11 10 11 9 10 10 10 11 11 13 13 13 11 12 11 10 10 8 5 5 3 3 4 5 7 8 7
13 12 11 10 9 9 8 6 4 4 3 2 3 4 5 6 8 11 11 9 9 10 10 11 10 13 21 17 10 10 12 9 8 7 7 6 6 5 5 3 5 5 8
13 12 11 11 9 9 8 7 5 4 3 2 3 4 5 5 15 15 13 7 8 9 9 10 11 12 16 20 19 18 15 10 10 8 7 8 8 5 4 3 2 1 3
14 12 12 11 10 9 9 7 6 4 4 2 2 4 5 7 16 15 12 6 7 8 9 10 10 9 13 13 15 16 13 17 16 8 9 8 6 8 6 3 5 4 4
14 14 12 12 11 10 9 7 6 5 4 3 2 4 5 5 15 14 9 6 6 7 8 9 12 11 14 14 12 11 11 9 9 7 7 7 6 7 6 3 3 4 4
16 15 14 13 12 11 10 9 6 6 5 3 2 3 5 5 14 13 8 5 6 5 6 8 11 11 19 21 11 11 11 10 12 14 13 13 14 15 11 1 2 2 3
16 15 14 13 13 11 10 9 7 6 5 4 3 3 4 5 12 13 9 5 6 5 5 7 13 14 18 20 11 10 10 11 10 8 7 8 9 10 13 7 4 3 2
14 14 13 13 13 11 11 8 7 6 5 3 3 3 4 4 6 11 12 6 5 5 5 6 7 17 17 18 17 11 10 10 11 7 6 6 6 6 5 5 5 4 3
15 15 14 13 10 10 11 9 8 7 6 4 3 2 4 2 6 8 10 10 7 4 5 5 7 15 15 16 14 19 18 12 7 7 6 7 5 5 5 5 5 5 4
15 15 15 14 12 11 11 10 8 7 6 5 3 3 3 2 3 7 7 9 9 5 4 7 12 13 15 11 18 19 13 8 7 7 7 7 7 4 3 1 2 3 6
15 14 13 14 13 11 8 8 7 6 6 5 4 4 3 3 4 4 4 4 6 5 7 5 8 10 12 11 8 10 8 8 7 7 7 7 7 4 4 3 3 3 4
14 13 13 11 12 11 8 7 7 5 6 6 4 4 4 4 4 6 6 4 4 6 3 4 5 6 7 8 8 8 8 8 9 8 7 7 7 6 5 4 4 4 5
15 12 12 11 10 10 9 8 10 10 11 11 10 6 3 8 5 8 10 9 8 7 4 4 5 6 7 7 8 8 8 10 9 8 7 7 7 7 6 5 5 4 5
16 16 12 12 11 12 10 10 11 10 14 14 11 9 9 8 6 7 10 13 11 9 5 5 4 5 5 6 7 7 8 8 9 7 7 7 7 6 6 6 5 4 5
14 18 13 12 12 12 11 10 10 11 10 8 11 9 9 8 5 5 7 7 4 7 5 4 4 4 4 5 6 7 7 8 8 8 8 7 7 7 6 6 5 4 4
13 12 12 12 11 12 11 10 10 10 9 9 5 5 4 10 8 8 9 4 4 5 4 4 3 3 4 4 4 5 6 7 8 7 7 7 7 7 6 6 4 6 5
13 16 14 11 12 12 11 12 11 10 10 9 8 7 4 5 2 1 2 3 4 4 3 4 3 3 3 4 4 5 5 6 7 7 8 7 7 6 6 6 6 5 5
11 13 16 11 12 12 12 12 11 10 10 9 8 8 13 5 4 4 3 2 3 3 2 4 2 2 3 4 4 4 5 5 6 7 7 7 7 7 6 5 4 4 4
12 13 13 13 12 13 12 11 11 11 10 10 8 8 18 4 5 5 4 3 3 4 2 3 2 2 2 3 3 4 5 5 6 7 7 7 7 6 6 6 5 4 3
12 14 14 12 12 14 12 11 11 11 11 10 9 9 9 6 6 5 5 4 4 3 2 1 3 1 1 1 2 2 3 4 5 6 7 7 7 7 6 5 5 4 4
14 15 15 14 13 13 13 12 11 13 12 11 10 9 9 8 7 6 6 5 4 4 3 2 2 2 2 3 2 3 2 3 4 5 5 5 7 8 5 5 5 5 4
14 15 16 15 16 15 14 13 12 12 11 11 10 9 9 8 7 7 6 5 3 4 4 3 2 3 1 2 4 4 5 7 4 4 3 4 5 8 7 5 5 5 6
14 16 15 14 15 15 14 14 14 13 13 11 11 10 9 9 8 7 7 6 4 3 4 4 3 4 2 2 2 6 7 6 4 6 4 4 5 6 6 7 9 6 6
Wind_Direction
162 156 152 148 140 133 122 114 86 50 12 5 11 13 2 357 353 352 355 355 349 345 355 348 349 352 343 336 337 345 353 354 342 342 351 4 19 27 22 28 29 41 52
159 153 154 147 144 139 130 119 95 64 23 1 6 17 10 358 351 350 356 356 351 347 352 350 351 348 344 340 336 351 352 358 354 353 358 4 21 22 29 34 35 36 36
154 153 154 154 149 133 125 116 89 63 11 6 7 19 15 349 346 355 354 356 355 349 348 350 349 352 341 338 348 350 351 357 2 6 8 354 11 357 38 39 40 46 41
160 154 155 155 146 137 131 123 108 86 55 18 353 8 12 333 352 357 355 358 1 351 349 351 351 352 338 340 348 353 352 358 3 6 11 13 347 349 33 27 46 39 32
161 151 146 136 129 130 131 130 116 91 79 11 343 11 12 353 348 4 354 358 4 355 352 355 352 338 345 1 350 357 353 1 8 3 11 12 13 7 21 17 54 50 31
151 144 140 133 142 140 138 137 124 113 106 55 355 22 16 359 343 9 359 4 10 2 356 356 351 346 349 359 357 3 9 4 8 5 5 10 10 4 9 29 4 345 84
147 145 146 143 146 147 142 140 131 126 101 84 6 33 27 357 346 8 5 17 22 9 4 2 348 343 356 354 353 360 9 16 19 3 5 7 354 352 344 23 34 45 71
150 151 150 148 146 145 143 146 142 139 128 94 35 36 24 4 352 8 7 26 36 22 1 2 346 351 356 359 356 359 2 4 8 4 9 4 359 350 358 1 57 92 93
162 161 156 152 148 151 150 152 144 141 134 117 66 48 31 6 352 11 10 30 31 29 3 358 353 359 354 3 2 359 355 2 354 5 14 18 21 20 23 333 41 25 58
168 162 152 151 151 154 149 151 153 147 134 137 113 72 51 7 354 13 21 23 28 10 14 10 5 5 3 6 9 357 356 350 346 354 8 10 24 25 29 30 10 45 90
155 146 146 149 149 151 145 145 148 145 136 131 128 101 68 16 353 17 22 35 22 9 9 7 360 5 7 11 12 8 358 348 345 356 1 13 15 17 24 23 18 12 23
145 147 148 150 151 150 145 147 146 144 139 141 142 122 87 31 15 14 26 38 29 13 18 1 353 1 9 13 15 11 12 7 1 358 4 2 7 17 12 24 23 55 44
154 156 151 151 151 152 148 150 150 159 150 149 150 113 77 39 18 21 18 35 32 32 10 354 354 4 12 15 16 20 11 11 2 12 357 350 345 348 2 32 45 64 69
158 158 153 153 151 155 153 155 149 161 152 148 153 131 107 65 24 18 13 21 29 29 5 354 8 11 22 15 7 17 13 7 1 355 348 337 336 4 30 12 33 27 66
158 160 158 158 157 150 152 157 153 155 154 152 143 140 131 93 44 48 41 35 28 37 329 13 16 14 13 9 6 11 10 7 6 357 351 347 351 1 28 16 16 29 71
162 166 167 159 156 150 144 143 150 146 144 134 135 131 108 106 89 67 61 56 49 75 50 40 26 18 17 5 356 359 10 4 359 356 355 355 351 2 16 34 32 42 67
169 165 165 162 161 153 155 152 144 149 145 139 135 132 131 117 100 89 76 65 63 69 68 51 33 20 11 7 354 2 1 356 347 358 359 360 351 0 18 24 27 49 61
172 170 165 167 162 155 159 157 152 152 155 157 154 142 135 131 123 97 84 80 53 51 58 52 31 12 15 10 356 358 355 354 357 359 3 359 355 359 16 29 21 38 61
175 168 169 162 163 155 154 156 156 153 152 141 137 111 141 128 109 85 80 78 87 73 63 53 33 358 15 7 0 352 356 360 351 353 3 3 358 359 7 13 24 41 60
176 172 174 165 158 157 160 161 160 157 151 153 161 159 136 110 185 90 79 97 93 86 77 60 27 351 14 3 357 1 354 8 2 358 359 359 357 360 358 359 13 35 54
174 167 175 167 167 163 166 167 159 156 157 161 163 157 161 158 149 153 143 117 109 101 90 76 28 352 3 15 350 8 10 3 8 357 353 354 357 1 347 351 19 23 62
174 169 177 172 166 166 168 165 161 158 159 158 151 164 169 147 148 152 146 129 108 89 54 84 67 13 352 12 355 2 11 13 0 359 354 348 350 350 349 360 10 30 59
175 170 177 174 171 168 167 164 164 162 159 158 150 159 158 160 156 156 150 138 140 132 117 99 90 43 330 345 354 356 2 6 344 346 348 344 343 352 351 1 9 18 30
175 175 176 172 169 170 170 166 166 165 160 157 155 161 158 154 155 156 146 145 144 134 132 127 102 62 352 329 353 335 343 306 325 340 339 333 341 348 355 3 13 15 23
177 177 178 177 171 171 168 167 167 165 163 161 158 156 153 150 152 151 149 146 143 150 139 138 146 144 200 305 324 331 325 314 343 336 332 337 346 356 358 8 10 22 29
183 180 179 178 175 173 169 168 167 166 164 163 159 157 154 155 157 154 151 149 151 151 142 134 161 162 222 249 321 324 324 325 29 9 338 3 11 12 2 8 11 19 25